Lapse_Rate
9.2 9.5 9.5 9.3 8.1 7.0 6.4 7.1 8.3 8.7 9.5 9.5 9.5 9.5 9.2 9.5 9.5 9.4 9.4 8.9 7.7 8.1
9.0 8.0 9.4 9.4 9.3 9.7 8.5 7.5 9.7 9.6 9.6 9.5 9.5 9.5 8.9 9.3 9.3 9.1 8.5 9.4 7.9 8.2
9.3 9.2 8.2 9.5 9.3 9.3 9.3 9.6 5.2 9.6 8.7 9.5 9.6 9.5 9.3 8.9 9.1 9.0 9.5 9.6 8.7 8.5
9.4 9.5 9.4 9.4 9.5 9.5 9.5 9.5 9.5 9.5 9.4 9.4 9.4 9.5 9.1 8.9 8.1 9.2 9.2 8.3 9.3 9.2
9.3 9.4 9.4 9.3 9.5 9.5 9.4 9.6 9.5 9.5 9.3 9.3 9.5 9.5 9.1 9.2 9.4 9.3 9.2 9.3 9.2 9.2
9.4 9.3 9.3 9.4 9.5 9.4 9.0 9.2 9.6 9.5 9.0 9.3 9.5 9.4 9.4 9.3 9.3 9.4 9.3 9.3 9.3 9.3
9.3 9.3 9.5 9.5 9.5 9.5 9.3 8.9 8.9 9.2 9.5 9.3 9.5 9.5 9.5 9.5 8.4 8.7 9.4 9.4 9.4 9.4
9.3 9.4 9.4 9.3 9.4 9.5 9.5 9.1 8.2 8.7 9.3 9.5 9.5 9.8 8.9 9.4 9.3 8.3 9.1 9.5 9.5 9.3
7.1 6.2 9.2 9.2 9.3 8.9 8.7 9.4 9.4 9.0 8.7 8.7 9.8 6.5 3.5 6.7 9.5 9.1 9.0 8.9 9.3 9.2
4.1 5.7 6.5 7.9 8.4 9.0 8.7 9.1 9.1 9.1 9.3 8.9 7.8 3.8 1.6 2.6 9.1 9.3 9.2 8.8 8.8 9.4
4.2 5.0 5.5 5.9 7.0 7.2 8.0 7.8 8.4 8.9 8.9 9.0 9.1 3.2 1.1 1.0 7.4 8.6 8.4 8.7 9.1 9.0
4.8 4.3 5.0 5.8 4.5 5.8 7.1 6.6 6.8 7.4 8.0 8.1 8.6 2.8 0.9 1.4 7.9 8.6 7.6 7.8 7.8 7.8
6.6 5.2 5.0 4.8 4.5 4.6 6.0 6.4 6.5 7.3 6.6 6.5 8.3 4.3 1.0 1.2 8.7 9.2 9.5 8.6 7.1 2.7
9.4 7.8 6.1 5.2 5.6 5.3 5.4 6.2 6.3 6.4 6.6 7.5 6.9 7.6 0.4 -0.7 8.0 9.2 9.5 9.9 9.8 9.6
Wind_Speed
12 9 8 8 4 5 4 2 13 8 9 8 8 9 7 5 6 7 5 5 6 7
12 12 9 8 9 7 4 3 9 10 8 10 10 8 6 7 7 4 5 6 6 6
14 13 11 8 8 7 6 6 5 7 7 7 8 9 7 6 7 6 6 8 9 7
13 14 12 11 11 10 9 9 6 6 8 8 9 8 7 8 2 8 7 8 6 6
11 11 13 12 12 11 10 10 10 10 9 10 10 9 10 11 9 9 8 9 8 8
13 13 13 13 13 12 11 11 12 11 11 11 12 10 10 10 11 10 10 10 9 9
12 13 14 13 12 13 11 12 12 12 11 13 12 12 12 12 11 12 11 11 11 10
11 11 11 11 12 12 12 12 13 12 12 13 13 12 13 12 13 14 12 11 11 12
8 10 9 11 11 12 13 12 12 14 13 14 13 14 12 12 12 12 12 10 11 12
13 12 9 7 7 10 12 13 13 14 14 15 15 13 13 15 15 13 12 12 12 12
12 12 13 12 7 7 9 9 12 13 14 14 14 13 14 13 14 14 15 15 13 14
10 11 12 12 12 12 8 6 7 9 12 15 15 12 14 12 15 16 17 15 16 16
6 8 9 10 12 11 12 11 9 12 11 15 16 13 13 12 13 15 14 15 17 16
10 9 5 7 8 8 11 12 11 11 12 14 14 15 14 16 13 14 14 14 13 14
Wind_Direction
211 218 224 206 259 304 164 299 148 167 191 222 192 208 192 219 232 188 211 245 288 305
205 224 222 239 201 236 230 202 193 169 194 205 204 212 190 249 191 201 219 213 236 274
210 211 219 221 232 251 251 242 121 203 186 191 214 213 219 235 187 207 233 235 176 229
209 209 211 214 218 223 236 255 229 244 225 204 222 213 209 255 264 199 220 267 276 207
220 214 206 214 214 215 223 227 235 225 213 226 234 230 204 228 240 220 218 230 245 236
215 213 224 209 213 208 214 224 228 224 206 226 228 225 228 231 235 246 218 232 231 234
206 221 221 223 216 213 211 217 226 231 226 214 231 236 235 227 222 258 239 235 235 243
201 217 238 229 235 226 217 216 221 225 229 229 224 223 221 234 242 216 236 251 236 228
333 351 226 221 232 236 246 231 223 226 226 225 232 227 212 223 231 229 227 232 248 256
4 355 334 309 256 234 236 250 234 235 234 231 228 237 216 208 229 244 243 232 233 240
5 356 349 340 284 262 262 244 240 244 240 244 240 225 224 215 228 235 239 245 245 231
11 351 343 337 342 323 264 259 263 261 251 247 245 237 222 215 239 240 242 243 239 245
12 348 338 335 329 320 316 277 258 253 251 254 249 231 213 208 244 244 242 236 236 235
342 336 308 311 312 316 312 307 290 261 260 262 258 247 205 202 233 246 246 243 244 233